CAPE
0 0 0 0 1 2 1 1 1 2 2 3 6 7 0 5 11 3 2 8 20 12 4 30 19 9 1 0 0 0 0 0 0 0 1 1 4 3 1 0 0 0 0
0 0 1 0 0 0 0 0 1 0 1 1 2 3 3 5 4 1 1 0 10 25 25 36 2 33 3 0 0 0 1 0 0 0 3 3 4 2 0 0 0 0 0
0 0 0 1 0 0 0 0 1 1 1 2 1 2 2 2 3 5 6 1 0 1 34 38 43 7 1 0 0 1 1 1 0 0 2 5 1 4 2 1 0 0 0
0 1 1 0 0 2 2 1 2 1 1 1 1 1 1 1 2 3 8 7 5 19 11 36 39 7 0 0 0 1 1 0 0 1 3 6 3 2 2 4 3 0 0
1 1 1 1 1 2 3 2 1 1 1 1 1 1 2 2 3 9 6 13 4 5 0 39 31 7 0 0 0 1 0 1 2 2 2 4 2 5 6 4 4 1 1
1 1 1 1 2 3 3 2 3 2 1 1 1 1 1 2 2 2 0 0 0 1 0 7 9 0 0 0 0 0 0 0 2 2 1 0 3 4 3 1 2 2 2
1 1 2 2 4 2 2 2 1 1 1 1 1 1 1 1 1 1 0 2 1 3 0 0 0 0 0 0 0 0 1 1 0 0 0 1 3 0 3 3 2 1 1
1 2 1 2 3 2 0 1 1 1 1 0 0 1 1 1 2 1 1 0 3 1 0 0 0 0 0 0 0 0 0 0 0 0 0 1 0 2 1 0 2 0 0
1 1 2 1 2 2 1 1 1 1 0 0 1 1 1 1 1 2 0 0 1 0 0 0 0 0 1 1 1 0 0 0 0 0 0 0 0 0 0 0 1 0 0
1 0 0 0 1 1 1 1 1 1 1 1 0 0 2 1 2 0 0 0 0 0 0 0 0 0 3 1 1 2 0 1 0 1 2 4 2 2 0 0 0 0 0
1 0 0 1 0 0 1 1 1 1 1 1 0 1 0 0 0 1 0 0 0 1 0 1 1 1 2 1 1 0 0 3 5 2 3 3 2 1 1 0 0 0 0
0 0 0 0 1 0 1 1 1 1 4 1 2 3 1 1 0 1 1 1 3 1 2 2 1 1 3 3 1 4 2 2 4 4 2 1 0 0 0 0 0 0 0
1 1 0 0 1 1 1 2 2 2 3 3 0 1 2 2 1 4 6 5 3 2 2 1 0 0 1 2 4 3 3 3 2 1 0 0 0 0 0 0 0 0 0
0 0 0 1 2 2 2 2 3 2 2 1 3 3 4 3 2 2 2 2 1 2 2 1 2 2 2 0 1 2 1 1 1 0 0 0 0 0 0 0 0 0 0
0 0 0 0 2 3 2 3 3 2 1 1 0 1 1 1 1 1 1 2 2 2 1 2 2 1 1 1 1 1 0 0 0 0 0 0 0 0 1 0 1 0 0
0 0 0 0 0 1 2 2 2 2 1 1 2 1 1 1 2 2 1 1 1 1 2 2 3 1 1 0 0 0 0 0 0 1 1 1 1 1 2 1 0 1 1
0 0 0 0 0 0 0 0 0 0 2 0 0 1 2 1 1 1 3 3 3 2 0 1 1 0 0 0 0 0 0 1 1 1 1 2 0 2 0 0 1 0 0
0 0 0 0 0 0 0 0 0 0 0 0 1 0 0 0 0 0 0 0 0 0 0 0 0 0 0 0 0 0 1 1 0 0 0 0 0 0 0 0 0 0 0
0 0 0 0 0 0 0 0 0 0 0 0 0 0 0 0 0 0 0 0 0 0 0 0 0 0 0 0 0 0 0 0 0 0 0 0 0 0 0 0 0 0 0
0 0 0 0 0 0 0 0 0 0 0 0 0 0 0 0 0 0 0 0 0 0 0 0 0 0 0 0 0 0 0 0 0 0 0 0 0 0 0 0 0 0 0
0 0 0 0 0 0 0 0 0 0 0 0 0 0 0 0 0 0 0 0 0 0 0 0 0 0 0 0 0 0 0 0 0 0 0 0 0 0 0 0 0 0 0
0 0 0 0 0 0 0 0 0 0 0 0 0 1 0 0 0 0 0 0 0 0 0 0 0 0 0 0 0 0 0 0 0 0 0 0 0 0 0 0 0 0 0
0 0 0 0 0 0 0 0 0 0 0 0 0 0 0 0 0 0 0 0 0 0 0 0 0 0 0 0 0 0 0 0 0 0 0 0 0 0 0 0 0 0 0
0 0 0 0 0 0 0 0 0 0 0 0 0 0 0 0 0 0 0 0 0 0 0 0 0 0 0 0 0 0 0 0 0 0 0 0 0 0 0 0 0 0 0
0 0 0 0 0 0 0 0 0 0 0 0 0 0 0 0 0 0 0 0 0 0 0 0 0 0 0 0 0 0 0 0 0 0 0 0 0 0 0 0 0 0 0
0 0 0 0 0 0 0 0 0 0 0 0 0 0 0 0 0 0 0 0 0 0 0 0 0 0 0 0 0 0 0 0 0 0 0 0 0 0 0 0 0 0 0
CIN
0 -1 0 0 -1 0 0 0 0 0 0 0 0 0 0 -1 -1 -1 0 -1 -2 -1 -2 -2 -1 -1 -3 0 0 0 0 0 0 0 0 0 0 0 0 0 0 0 0
-1 0 0 -1 -1 0 0 0 0 0 0 0 0 0 0 0 0 0 0 -1 -1 -1 -1 -1 -1 -3 -2 -1 0 0 0 0 0 0 0 0 0 0 0 0 0 0 0
0 0 0 0 0 0 0 0 0 0 0 0 0 0 0 0 0 0 0 -1 -1 -1 -1 -1 -1 -2 -6 0 0 0 0 0 0 0 0 0 0 0 0 0 0 0 0
-1 0 0 0 0 0 0 0 0 0 0 0 0 0 0 0 0 0 0 -1 -1 0 -3 -3 -2 -6 -4 0 0 0 0 0 0 0 0 0 0 0 0 0 0 0 0
0 0 0 0 0 0 0 0 0 0 0 0 0 0 0 0 0 0 0 -1 -1 -1 -1 -2 -6 -7 0 0 0 0 0 0 0 0 0 0 0 0 0 0 0 0 0
0 0 0 0 0 0 0 0 0 0 0 0 0 0 0 0 0 0 0 -1 0 0 0 -7 -21 0 0 0 0 0 0 0 0 0 0 0 0 0 0 0 0 0 0
0 0 0 0 0 0 0 0 0 0 0 0 0 0 0 0 0 -1 -1 -1 -1 -1 0 0 0 0 0 0 0 0 0 0 0 0 0 0 0 0 0 0 0 0 0
0 0 0 0 0 0 0 0 0 0 0 0 0 0 0 0 0 0 0 -1 -1 -2 0 0 0 0 0 0 0 0 0 0 0 0 0 0 0 0 0 0 0 0 0
0 0 0 0 0 0 0 0 0 0 0 0 0 0 0 0 0 0 0 -2 -2 0 0 0 0 0 0 0 0 0 0 0 0 0 0 0 0 0 0 0 0 0 0
0 0 0 0 0 0 0 0 0 0 0 0 0 0 -1 0 -2 -1 0 0 0 0 0 0 0 0 0 0 0 0 0 0 0 0 0 0 0 0 0 0 0 0 0
0 0 0 0 0 0 0 0 0 0 0 0 0 0 0 0 0 0 0 0 0 0 0 0 0 0 0 0 0 0 0 0 0 0 0 0 0 0 0 0 0 0 0
0 0 0 0 0 0 0 0 0 0 0 0 0 0 0 0 0 0 0 0 0 0 0 0 0 0 0 0 0 0 0 0 0 0 0 0 0 0 0 0 0 0 0
0 0 0 0 0 0 0 0 0 0 0 0 0 0 0 0 0 0 0 0 0 0 0 0 0 0 0 0 0 0 0 0 0 0 0 0 0 0 0 0 0 0 0
0 0 0 0 0 0 0 0 0 0 0 0 0 0 0 0 0 0 0 0 0 0 0 0 0 0 0 0 0 0 0 0 0 0 0 0 0 0 0 0 0 0 0
0 0 0 0 0 0 0 0 0 0 0 0 0 0 0 0 0 0 0 0 0 0 0 0 0 0 0 0 0 0 0 0 0 0 0 0 0 0 0 0 0 0 0
0 0 0 0 0 0 0 0 0 0 0 0 0 0 0 0 0 0 0 0 0 0 0 0 0 0 0 0 0 0 0 0 0 0 0 0 0 0 0 0 0 0 0
0 0 0 0 0 0 0 0 0 0 0 0 0 0 0 0 0 0 0 0 0 0 0 0 0 0 0 0 0 0 0 0 0 0 0 0 0 0 0 0 0 0 0
0 0 0 0 0 0 0 0 0 0 0 0 0 0 0 0 0 0 0 0 0 0 0 0 0 0 0 0 0 0 0 0 0 0 0 0 0 0 0 0 0 0 0
0 0 0 0 0 0 0 0 0 0 0 0 0 0 0 0 0 0 0 0 0 0 0 0 0 0 0 0 0 0 0 0 0 0 0 0 0 0 0 0 0 0 0
0 0 0 0 0 0 0 0 0 0 0 0 0 0 0 0 0 0 0 0 0 0 0 0 0 0 0 0 0 0 0 0 0 0 0 0 0 0 0 0 0 0 0
0 0 0 0 0 0 0 0 0 0 0 0 0 0 0 0 0 0 0 0 0 0 0 0 0 0 0 0 0 0 0 0 0 0 0 0 0 0 0 0 0 0 0
0 0 0 0 0 0 0 0 0 0 0 0 0 0 0 0 0 0 0 0 0 0 0 0 0 0 0 0 0 0 0 0 0 0 0 0 0 0 0 0 0 0 0
0 0 0 0 0 0 0 0 0 0 0 0 0 0 0 0 0 0 0 0 0 0 0 0 0 0 0 0 0 0 0 0 0 0 0 0 0 0 0 0 0 0 0
0 0 0 0 0 0 0 0 0 0 0 0 0 0 0 0 0 0 0 0 0 0 0 0 0 0 0 0 0 0 0 0 0 0 0 0 0 0 0 0 0 0 0
0 0 0 0 0 0 0 0 0 0 0 0 0 0 0 0 0 0 0 0 0 0 0 0 0 0 0 0 0 0 0 0 0 0 0 0 0 0 0 0 0 0 0
0 0 0 0 0 0 0 0 0 0 0 0 0 0 0 0 0 0 0 0 0 0 0 0 0 0 0 0 0 0 0 0 0 0 0 0 0 0 0 0 0 0 0
Wind_Speed
43 42 40 39 37 35 33 31 30 32 33 34 34 31 33 37 40 43 43 47 47 45 46 40 38 41 44 43 41 41 37 37 36 36 38 36 33 33 31 28 27 25 23
42 41 38 36 34 32 30 28 25 26 27 28 27 28 27 32 38 46 47 47 48 47 45 43 38 36 40 41 39 39 38 40 41 40 34 32 35 33 30 31 29 27 26
41 38 37 34 31 28 28 32 28 27 26 29 24 24 19 21 39 46 45 47 50 48 45 43 37 33 37 39 39 39 39 36 37 37 34 26 29 26 28 32 31 29 26
38 37 36 34 32 27 29 31 33 30 28 26 23 23 16 20 36 44 45 43 46 46 48 44 37 32 29 35 36 37 37 38 37 34 32 29 31 26 25 28 30 28 26
37 35 35 31 28 30 32 33 31 32 28 21 18 23 15 12 24 36 37 37 39 41 43 42 39 32 27 26 33 35 34 34 34 34 30 29 29 29 27 27 29 28 26
34 35 30 26 26 32 29 28 25 25 14 8 7 16 11 14 29 33 39 39 42 41 42 41 34 30 25 23 26 33 32 31 32 32 31 27 24 25 27 26 23 24 29
32 33 28 26 26 25 19 16 10 4 7 5 3 7 11 22 22 33 39 37 35 38 40 29 30 30 24 23 23 30 30 32 31 27 27 23 20 17 18 21 19 21 25
32 31 24 26 23 19 17 13 10 12 15 13 8 5 12 25 29 34 34 28 33 34 28 25 26 26 24 19 18 26 26 27 29 29 29 22 20 15 14 15 16 15 15
34 28 25 22 20 16 17 10 9 17 17 10 10 12 17 17 18 21 28 26 28 23 20 21 23 23 19 13 14 20 23 21 19 19 18 13 12 8 10 8 10 12 18
34 24 19 17 19 18 15 9 9 19 19 13 10 13 19 22 24 27 11 12 13 14 16 18 20 19 12 11 11 18 22 20 13 11 11 5 4 4 7 11 7 10 13
30 20 16 16 18 15 13 14 7 18 24 21 6 5 2 13 16 20 22 22 20 16 15 16 14 8 8 8 9 17 16 12 9 4 3 3 3 5 8 9 8 8 12
29 23 19 17 18 15 16 13 18 16 31 7 13 4 2 9 7 9 10 9 10 6 9 8 4 2 3 7 15 12 9 8 5 3 1 1 3 5 7 9 11 12 15
32 28 25 22 20 17 18 14 4 26 23 30 24 5 7 7 6 3 4 5 4 2 1 3 3 7 5 4 4 7 8 6 4 1 2 4 5 6 7 11 13 14 16
32 31 32 29 28 24 18 16 15 9 26 29 23 2 2 5 7 3 6 8 9 7 5 13 9 7 4 5 6 5 4 2 1 3 5 6 7 9 11 13 14 15 17
29 30 31 32 32 34 34 17 21 25 22 25 19 5 1 6 6 8 12 15 17 16 16 15 11 8 9 7 5 5 4 4 7 8 9 9 11 12 14 15 16 18 20
26 26 27 30 33 33 35 38 16 16 12 15 17 18 17 18 8 8 9 9 9 10 13 11 10 8 6 5 7 8 9 10 11 12 13 13 13 14 16 18 19 20 21
20 7 11 17 19 23 29 32 36 21 20 14 16 19 21 22 17 14 13 13 14 13 11 9 7 6 8 8 9 10 12 14 15 15 15 15 16 17 18 19 21 23 25
15 12 13 15 19 23 25 27 25 26 26 23 18 24 21 17 15 13 10 10 10 9 11 15 17 16 15 15 15 15 16 16 16 17 18 18 19 19 20 22 24 25 26
17 13 11 13 19 21 23 26 27 27 27 26 22 12 6 11 17 17 18 28 27 24 22 20 19 19 18 18 17 17 17 18 18 19 19 19 20 20 22 23 25 28 29
16 13 10 11 19 21 21 23 24 25 25 21 17 16 16 20 19 18 17 21 22 22 21 21 19 19 18 18 19 19 19 19 19 19 20 21 22 23 25 27 29 31 33
19 14 10 9 12 18 20 20 21 22 23 23 17 15 24 24 24 23 22 20 20 20 19 19 19 19 19 19 18 19 19 19 19 20 21 23 23 25 26 28 29 31 33
21 16 11 4 7 8 15 18 19 19 20 20 20 21 23 23 22 21 20 19 18 18 18 18 18 18 18 18 18 18 19 19 20 21 22 23 25 26 27 29 31 33 35
22 17 12 10 7 6 7 11 15 18 19 20 20 19 19 19 20 21 20 19 18 17 17 17 17 17 18 18 19 19 19 20 21 21 23 24 25 27 29 32 34 36 37
22 19 15 11 7 3 4 7 9 13 16 17 18 19 20 20 20 19 19 17 17 17 16 16 16 17 17 18 19 20 20 20 21 22 23 25 27 28 30 33 35 36 38
21 18 15 11 7 4 1 4 7 10 12 13 14 16 17 18 19 19 18 18 17 16 16 16 16 17 18 18 19 20 20 21 21 22 24 26 27 29 32 34 35 37 37
21 18 15 13 9 5 1 3 5 7 9 11 12 13 14 15 16 17 17 17 16 16 15 15 16 16 17 18 19 20 20 21 21 22 24 26 28 31 33 34 35 36 37
Wind_Direction
333 331 328 326 325 322 318 313 308 303 299 295 293 291 285 278 265 258 256 252 251 250 249 247 248 246 244 243 244 247 247 252 258 258 259 258 249 247 250 250 253 250 251
336 335 334 332 331 328 324 319 313 307 302 298 295 293 288 275 265 256 255 253 249 249 248 246 244 246 244 243 245 246 247 253 256 255 260 259 254 253 248 252 252 254 256
340 340 340 339 338 336 331 325 319 310 302 297 292 289 285 275 262 251 253 252 250 249 248 244 242 240 244 244 246 248 251 251 249 254 260 262 263 249 254 256 255 257 259
344 345 345 345 343 339 335 330 323 314 303 295 288 283 274 278 264 250 247 249 246 247 245 243 240 237 240 243 245 249 251 250 250 256 261 261 258 258 257 248 257 254 256
348 350 351 351 349 345 341 337 330 320 314 300 289 282 271 263 272 256 251 250 247 248 243 244 237 239 237 240 247 251 251 249 248 253 258 262 259 256 245 257 255 259 261
355 356 359 359 357 355 355 352 347 337 321 306 270 285 269 276 269 256 246 244 240 245 239 244 235 234 236 239 248 251 249 247 249 250 257 253 256 260 257 253 248 261 268
360 2 4 6 7 9 8 9 9 327 27 60 111 309 293 280 272 252 241 243 242 241 238 237 232 238 240 247 252 251 252 248 248 252 253 252 252 250 247 248 253 264 275
1 5 9 11 14 16 20 24 34 48 47 45 46 19 310 268 254 238 239 243 240 236 241 227 229 236 241 246 246 251 253 253 253 257 258 263 265 249 243 258 264 275 285
3 10 12 17 20 25 32 32 49 51 56 88 108 143 164 188 268 253 237 237 232 230 231 228 233 237 238 233 236 247 247 254 260 259 261 263 254 236 248 272 271 268 284
4 17 23 29 34 40 50 65 79 68 74 93 122 159 158 178 188 190 210 218 221 220 226 230 235 241 230 226 234 240 240 248 255 260 258 251 247 242 269 287 276 279 294
13 26 33 40 43 52 68 78 99 80 74 89 105 345 253 186 185 188 195 206 216 217 222 232 243 230 227 237 232 236 238 235 233 210 189 251 295 297 302 312 315 309 306
17 26 35 46 52 67 77 311 85 101 45 96 110 124 184 186 215 221 221 222 218 214 233 240 223 184 202 224 228 223 211 199 193 186 185 339 317 320 319 330 333 335 333
19 30 40 49 62 75 80 101 164 19 6 33 21 351 175 200 233 293 24 44 52 49 199 165 129 191 169 108 155 152 177 188 184 184 43 9 331 345 349 341 342 341 342
24 28 27 52 56 72 94 98 101 5 33 59 101 321 288 208 207 245 33 48 71 84 126 188 185 176 125 118 123 123 135 150 128 45 31 19 10 358 349 344 343 351 342
27 31 28 43 61 57 64 102 99 89 59 28 24 38 6 357 182 179 182 182 179 178 178 178 178 154 121 131 108 87 64 43 42 36 31 11 2 360 359 1 351 345 339
21 27 27 41 53 74 76 74 36 46 59 58 87 87 46 52 77 122 83 85 107 132 152 136 114 110 122 95 68 51 36 32 30 32 27 24 21 9 0 356 352 348 344
14 238 143 124 119 111 100 95 90 89 43 72 95 108 119 126 124 121 116 116 135 135 108 116 104 81 61 49 39 34 32 30 37 32 24 17 10 4 1 358 354 350 346
12 71 176 144 121 109 104 105 113 113 114 116 111 117 120 122 127 131 123 77 70 67 62 61 61 56 51 49 46 46 44 38 28 23 19 14 10 7 2 358 356 353 349
284 309 344 97 130 119 111 99 100 106 108 115 124 136 127 35 41 44 50 73 75 70 66 62 57 58 56 52 47 40 35 32 30 27 22 20 17 13 6 2 357 352 349
282 302 343 293 156 116 120 103 96 99 106 130 142 146 150 104 43 40 40 56 63 64 64 62 56 52 50 49 49 49 45 39 34 30 24 19 13 8 2 358 354 350 348
266 279 303 328 277 105 110 104 102 93 90 84 146 159 108 77 73 65 60 53 56 56 55 55 53 51 51 49 46 43 39 34 28 22 15 10 8 4 2 359 356 352 349
258 265 284 355 328 34 86 100 99 93 86 83 68 64 81 76 71 63 57 53 52 52 50 57 52 46 43 41 41 38 33 28 22 18 14 9 7 5 1 358 354 351 348
254 260 269 281 302 337 19 62 94 104 104 102 94 76 70 65 69 71 65 59 55 51 44 45 45 41 35 33 31 31 26 21 19 17 13 9 5 2 359 355 353 349 347
252 254 259 267 280 321 13 50 64 87 93 91 93 90 87 84 77 71 67 58 54 51 44 42 40 39 36 31 27 25 26 23 20 15 11 6 2 360 357 354 351 349 347
249 250 251 254 256 272 15 59 72 81 83 83 82 82 82 81 78 79 73 68 61 56 51 46 41 36 30 27 25 22 20 18 14 10 6 3 0 358 354 351 350 349 348
244 246 246 247 247 247 183 104 94 89 89 86 82 82 82 82 80 77 76 72 64 56 49 41 36 30 26 22 18 15 13 10 8 7 4 1 359 355 353 351 350 349 347